Date_Time,Julian_Date,Latitude,Longitude,Instrument_Depth,Water_Temperature
(yyyy-mm-dd hh:mn:ss UTC),(JD),(+ deg. North),(+ deg. East),(m),(deg. C)
1985-01-23 20:00:00 UTC,2446089.333333,25.8817,-84.3197,0179,15.4680
1985-01-23 20:15:00 UTC,2446089.343750,25.8817,-84.3197,0179,14.9650
1985-01-23 20:30:00 UTC,2446089.354167,25.8817,-84.3197,0179,14.9170
1985-01-23 20:45:00 UTC,2446089.364583,25.8817,-84.3197,0179,14.9050
1985-01-23 21:00:00 UTC,2446089.375000,25.8817,-84.3197,0179,14.8960
1985-01-23 21:15:00 UTC,2446089.385417,25.8817,-84.3197,0179,14.8940
1985-01-23 21:30:00 UTC,2446089.395833,25.8817,-84.3197,0179,14.8870
1985-01-23 21:45:00 UTC,2446089.406250,25.8817,-84.3197,0179,14.8880
1985-01-23 22:00:00 UTC,2446089.416667,25.8817,-84.3197,0179,14.8930
1985-01-23 22:15:00 UTC,2446089.427083,25.8817,-84.3197,0179,14.8940
1985-01-23 22:30:00 UTC,2446089.437500,25.8817,-84.3197,0179,14.8960
1985-01-23 22:45:00 UTC,2446089.447917,25.8817,-84.3197,0179,14.8940
1985-01-23 23:00:00 UTC,2446089.458333,25.8817,-84.3197,0179,14.8980
1985-01-23 23:15:00 UTC,2446089.468750,25.8817,-84.3197,0179,14.9050
1985-01-23 23:30:00 UTC,2446089.479167,25.8817,-84.3197,0179,14.9360
1985-01-23 23:45:00 UTC,2446089.489583,25.8817,-84.3197,0179,15.0030
1985-01-24 00:00:00 UTC,2446089.500000,25.8817,-84.3197,0179,15.0310
1985-01-24 00:15:00 UTC,2446089.510417,25.8817,-84.3197,0179,15.0220
1985-01-24 00:30:00 UTC,2446089.520833,25.8817,-84.3197,0179,14.9890
1985-01-24 00:45:00 UTC,2446089.531250,25.8817,-84.3197,0179,15.0120
1985-01-24 01:00:00 UTC,2446089.541667,25.8817,-84.3197,0179,15.0170
1985-01-24 01:15:00 UTC,2446089.552083,25.8817,-84.3197,0179,15.0140
1985-01-24 01:30:00 UTC,2446089.562500,25.8817,-84.3197,0179,15.0550
1985-01-24 01:45:00 UTC,2446089.572917,25.8817,-84.3197,0179,15.0810
1985-01-24 02:00:00 UTC,2446089.583333,25.8817,-84.3197,0179,15.0120
1985-01-24 02:15:00 UTC,2446089.593750,25.8817,-84.3197,0179,14.9900
1985-01-24 02:30:00 UTC,2446089.604167,25.8817,-84.3197,0179,15.0270
1985-01-24 02:45:00 UTC,2446089.614583,25.8817,-84.3197,0179,14.9980
1985-01-24 03:00:00 UTC,2446089.625000,25.8817,-84.3197,0179,14.9440
1985-01-24 03:15:00 UTC,2446089.635417,25.8817,-84.3197,0179,15.0340
1985-01-24 03:30:00 UTC,2446089.645833,25.8817,-84.3197,0179,15.0070
1985-01-24 03:45:00 UTC,2446089.656250,25.8817,-84.3197,0179,15.0670
1985-01-24 04:00:00 UTC,2446089.666667,25.8817,-84.3197,0179,15.0680
1985-01-24 04:15:00 UTC,2446089.677083,25.8817,-84.3197,0179,15.0950
1985-01-24 04:30:00 UTC,2446089.687500,25.8817,-84.3197,0179,15.0740
1985-01-24 04:45:00 UTC,2446089.697917,25.8817,-84.3197,0179,15.0830
1985-01-24 05:00:00 UTC,2446089.708333,25.8817,-84.3197,0179,15.0940
1985-01-24 05:15:00 UTC,2446089.718750,25.8817,-84.3197,0179,15.0770
1985-01-24 05:30:00 UTC,2446089.729167,25.8817,-84.3197,0179,15.0600
1985-01-24 05:45:00 UTC,2446089.739583,25.8817,-84.3197,0179,15.0700
1985-01-24 06:00:00 UTC,2446089.750000,25.8817,-84.3197,0179,15.2410
1985-01-24 06:15:00 UTC,2446089.760417,25.8817,-84.3197,0179,15.3260
1985-01-24 06:30:00 UTC,2446089.770833,25.8817,-84.3197,0179,15.1720
1985-01-24 06:45:00 UTC,2446089.781250,25.8817,-84.3197,0179,15.0900
1985-01-24 07:00:00 UTC,2446089.791667,25.8817,-84.3197,0179,15.1530
1985-01-24 07:15:00 UTC,2446089.802083,25.8817,-84.3197,0179,15.1610
1985-01-24 07:30:00 UTC,2446089.812500,25.8817,-84.3197,0179,15.1040
1985-01-24 07:45:00 UTC,2446089.822917,25.8817,-84.3197,0179,15.0840
1985-01-24 08:00:00 UTC,2446089.833333,25.8817,-84.3197,0179,15.0640
1985-01-24 08:15:00 UTC,2446089.843750,25.8817,-84.3197,0179,15.1380
1985-01-24 08:30:00 UTC,2446089.854167,25.8817,-84.3197,0179,15.2190
1985-01-24 08:45:00 UTC,2446089.864583,25.8817,-84.3197,0179,15.3360
1985-01-24 09:00:00 UTC,2446089.875000,25.8817,-84.3197,0179,15.3420
1985-01-24 09:15:00 UTC,2446089.885417,25.8817,-84.3197,0179,15.2440
1985-01-24 09:30:00 UTC,2446089.895833,25.8817,-84.3197,0179,15.3070
1985-01-24 09:45:00 UTC,2446089.906250,25.8817,-84.3197,0179,15.3900
1985-01-24 10:00:00 UTC,2446089.916667,25.8817,-84.3197,0179,15.4920
1985-01-24 10:15:00 UTC,2446089.927083,25.8817,-84.3197,0179,15.6830
1985-01-24 10:30:00 UTC,2446089.937500,25.8817,-84.3197,0179,15.5670
1985-01-24 10:45:00 UTC,2446089.947917,25.8817,-84.3197,0179,15.5240
1985-01-24 11:00:00 UTC,2446089.958333,25.8817,-84.3197,0179,15.4030
1985-01-24 11:15:00 UTC,2446089.968750,25.8817,-84.3197,0179,15.3640
1985-01-24 11:30:00 UTC,2446089.979167,25.8817,-84.3197,0179,15.2600
1985-01-24 11:45:00 UTC,2446089.989583,25.8817,-84.3197,0179,15.2010
1985-01-24 12:00:00 UTC,2446090.000000,25.8817,-84.3197,0179,15.2260
1985-01-24 12:15:00 UTC,2446090.010417,25.8817,-84.3197,0179,15.1880
1985-01-24 12:30:00 UTC,2446090.020833,25.8817,-84.3197,0179,15.0040
1985-01-24 12:45:00 UTC,2446090.031250,25.8817,-84.3197,0179,14.9940
1985-01-24 13:00:00 UTC,2446090.041667,25.8817,-84.3197,0179,15.0670
1985-01-24 13:15:00 UTC,2446090.052083,25.8817,-84.3197,0179,15.0550
1985-01-24 13:30:00 UTC,2446090.062500,25.8817,-84.3197,0179,15.1350
1985-01-24 13:45:00 UTC,2446090.072917,25.8817,-84.3197,0179,15.1420
1985-01-24 14:00:00 UTC,2446090.083333,25.8817,-84.3197,0179,14.8830
1985-01-24 14:15:00 UTC,2446090.093750,25.8817,-84.3197,0179,14.7420
1985-01-24 14:30:00 UTC,2446090.104167,25.8817,-84.3197,0179,14.6880
1985-01-24 14:45:00 UTC,2446090.114583,25.8817,-84.3197,0179,14.6470
1985-01-24 15:00:00 UTC,2446090.125000,25.8817,-84.3197,0179,14.6180
1985-01-24 15:15:00 UTC,2446090.135417,25.8817,-84.3197,0179,14.5880
1985-01-24 15:30:00 UTC,2446090.145833,25.8817,-84.3197,0179,14.5730
1985-01-24 15:45:00 UTC,2446090.156250,25.8817,-84.3197,0179,14.5570
1985-01-24 16:00:00 UTC,2446090.166667,25.8817,-84.3197,0179,14.5350
1985-01-24 16:15:00 UTC,2446090.177083,25.8817,-84.3197,0179,14.5260
1985-01-24 16:30:00 UTC,2446090.187500,25.8817,-84.3197,0179,14.5110
1985-01-24 16:45:00 UTC,2446090.197917,25.8817,-84.3197,0179,14.4980
1985-01-24 17:00:00 UTC,2446090.208333,25.8817,-84.3197,0179,14.4900
1985-01-24 17:15:00 UTC,2446090.218750,25.8817,-84.3197,0179,14.4870
1985-01-24 17:30:00 UTC,2446090.229167,25.8817,-84.3197,0179,14.4880
1985-01-24 17:45:00 UTC,2446090.239583,25.8817,-84.3197,0179,14.5020
1985-01-24 18:00:00 UTC,2446090.250000,25.8817,-84.3197,0179,14.4910
1985-01-24 18:15:00 UTC,2446090.260417,25.8817,-84.3197,0179,14.4910
1985-01-24 18:30:00 UTC,2446090.270833,25.8817,-84.3197,0179,14.5080
1985-01-24 18:45:00 UTC,2446090.281250,25.8817,-84.3197,0179,14.5060
1985-01-24 19:00:00 UTC,2446090.291667,25.8817,-84.3197,0179,14.5310
1985-01-24 19:15:00 UTC,2446090.302083,25.8817,-84.3197,0179,14.7240
1985-01-24 19:30:00 UTC,2446090.312500,25.8817,-84.3197,0179,15.0210
1985-01-24 19:45:00 UTC,2446090.322917,25.8817,-84.3197,0179,14.8260
1985-01-24 20:00:00 UTC,2446090.333333,25.8817,-84.3197,0179,14.9890
1985-01-24 20:15:00 UTC,2446090.343750,25.8817,-84.3197,0179,15.4890
1985-01-24 20:30:00 UTC,2446090.354167,25.8817,-84.3197,0179,15.0410
1985-01-24 20:45:00 UTC,2446090.364583,25.8817,-84.3197,0179,15.0870
1985-01-24 21:00:00 UTC,2446090.375000,25.8817,-84.3197,0179,15.0740
1985-01-24 21:15:00 UTC,2446090.385417,25.8817,-84.3197,0179,14.8710
1985-01-24 21:30:00 UTC,2446090.395833,25.8817,-84.3197,0179,15.2530
1985-01-24 21:45:00 UTC,2446090.406250,25.8817,-84.3197,0179,15.9460
1985-01-24 22:00:00 UTC,2446090.416667,25.8817,-84.3197,0179,16.1100
1985-01-24 22:15:00 UTC,2446090.427083,25.8817,-84.3197,0179,15.9280
1985-01-24 22:30:00 UTC,2446090.437500,25.8817,-84.3197,0179,15.6080
1985-01-24 22:45:00 UTC,2446090.447917,25.8817,-84.3197,0179,15.9450
1985-01-24 23:00:00 UTC,2446090.458333,25.8817,-84.3197,0179,15.3730
1985-01-24 23:15:00 UTC,2446090.468750,25.8817,-84.3197,0179,16.1500
1985-01-24 23:30:00 UTC,2446090.479167,25.8817,-84.3197,0179,16.4460
1985-01-24 23:45:00 UTC,2446090.489583,25.8817,-84.3197,0179,15.4950
1985-01-25 00:00:00 UTC,2446090.500000,25.8817,-84.3197,0179,15.2110
1985-01-25 00:15:00 UTC,2446090.510417,25.8817,-84.3197,0179,15.0450
1985-01-25 00:30:00 UTC,2446090.520833,25.8817,-84.3197,0179,15.0850
1985-01-25 00:45:00 UTC,2446090.531250,25.8817,-84.3197,0179,15.0200
1985-01-25 01:00:00 UTC,2446090.541667,25.8817,-84.3197,0179,15.0130
1985-01-25 01:15:00 UTC,2446090.552083,25.8817,-84.3197,0179,15.0210
1985-01-25 01:30:00 UTC,2446090.562500,25.8817,-84.3197,0179,15.0610
1985-01-25 01:45:00 UTC,2446090.572917,25.8817,-84.3197,0179,15.0080
1985-01-25 02:00:00 UTC,2446090.583333,25.8817,-84.3197,0179,15.0260
1985-01-25 02:15:00 UTC,2446090.593750,25.8817,-84.3197,0179,15.0790
1985-01-25 02:30:00 UTC,2446090.604167,25.8817,-84.3197,0179,15.0220
1985-01-25 02:45:00 UTC,2446090.614583,25.8817,-84.3197,0179,14.9590
1985-01-25 03:00:00 UTC,2446090.625000,25.8817,-84.3197,0179,15.0070
1985-01-25 03:15:00 UTC,2446090.635417,25.8817,-84.3197,0179,15.0510
1985-01-25 03:30:00 UTC,2446090.645833,25.8817,-84.3197,0179,15.4860
1985-01-25 03:45:00 UTC,2446090.656250,25.8817,-84.3197,0179,15.4400
1985-01-25 04:00:00 UTC,2446090.666667,25.8817,-84.3197,0179,15.3490
1985-01-25 04:15:00 UTC,2446090.677083,25.8817,-84.3197,0179,15.4280
1985-01-25 04:30:00 UTC,2446090.687500,25.8817,-84.3197,0179,15.5220
1985-01-25 04:45:00 UTC,2446090.697917,25.8817,-84.3197,0179,15.3860
1985-01-25 05:00:00 UTC,2446090.708333,25.8817,-84.3197,0179,15.2810
1985-01-25 05:15:00 UTC,2446090.718750,25.8817,-84.3197,0179,15.2490
1985-01-25 05:30:00 UTC,2446090.729167,25.8817,-84.3197,0179,15.3300
1985-01-25 05:45:00 UTC,2446090.739583,25.8817,-84.3197,0179,15.3280
1985-01-25 06:00:00 UTC,2446090.750000,25.8817,-84.3197,0179,15.3540
1985-01-25 06:15:00 UTC,2446090.760417,25.8817,-84.3197,0179,15.3170
1985-01-25 06:30:00 UTC,2446090.770833,25.8817,-84.3197,0179,15.3770
1985-01-25 06:45:00 UTC,2446090.781250,25.8817,-84.3197,0179,15.4200
1985-01-25 07:00:00 UTC,2446090.791667,25.8817,-84.3197,0179,15.5660
1985-01-25 07:15:00 UTC,2446090.802083,25.8817,-84.3197,0179,15.6930
1985-01-25 07:30:00 UTC,2446090.812500,25.8817,-84.3197,0179,15.7620
1985-01-25 07:45:00 UTC,2446090.822917,25.8817,-84.3197,0179,15.7750
1985-01-25 08:00:00 UTC,2446090.833333,25.8817,-84.3197,0179,15.8020
1985-01-25 08:15:00 UTC,2446090.843750,25.8817,-84.3197,0179,15.7910
1985-01-25 08:30:00 UTC,2446090.854167,25.8817,-84.3197,0179,15.7810
1985-01-25 08:45:00 UTC,2446090.864583,25.8817,-84.3197,0179,15.7870
1985-01-25 09:00:00 UTC,2446090.875000,25.8817,-84.3197,0179,15.7950
1985-01-25 09:15:00 UTC,2446090.885417,25.8817,-84.3197,0179,15.7700
1985-01-25 09:30:00 UTC,2446090.895833,25.8817,-84.3197,0179,15.7650
1985-01-25 09:45:00 UTC,2446090.906250,25.8817,-84.3197,0179,15.7540
1985-01-25 10:00:00 UTC,2446090.916667,25.8817,-84.3197,0179,15.6630
1985-01-25 10:15:00 UTC,2446090.927083,25.8817,-84.3197,0179,15.6660
1985-01-25 10:30:00 UTC,2446090.937500,25.8817,-84.3197,0179,15.7330
1985-01-25 10:45:00 UTC,2446090.947917,25.8817,-84.3197,0179,15.7730
1985-01-25 11:00:00 UTC,2446090.958333,25.8817,-84.3197,0179,15.8030
1985-01-25 11:15:00 UTC,2446090.968750,25.8817,-84.3197,0179,15.8480
1985-01-25 11:30:00 UTC,2446090.979167,25.8817,-84.3197,0179,15.8640
1985-01-25 11:45:00 UTC,2446090.989583,25.8817,-84.3197,0179,15.8240
1985-01-25 12:00:00 UTC,2446091.000000,25.8817,-84.3197,0179,15.6000
1985-01-25 12:15:00 UTC,2446091.010417,25.8817,-84.3197,0179,15.7590
1985-01-25 12:30:00 UTC,2446091.020833,25.8817,-84.3197,0179,15.6970
1985-01-25 12:45:00 UTC,2446091.031250,25.8817,-84.3197,0179,15.6360
1985-01-25 13:00:00 UTC,2446091.041667,25.8817,-84.3197,0179,15.6310
1985-01-25 13:15:00 UTC,2446091.052083,25.8817,-84.3197,0179,15.6750
1985-01-25 13:30:00 UTC,2446091.062500,25.8817,-84.3197,0179,15.7690
1985-01-25 13:45:00 UTC,2446091.072917,25.8817,-84.3197,0179,15.7120
1985-01-25 14:00:00 UTC,2446091.083333,25.8817,-84.3197,0179,15.6300
1985-01-25 14:15:00 UTC,2446091.093750,25.8817,-84.3197,0179,15.5350
1985-01-25 14:30:00 UTC,2446091.104167,25.8817,-84.3197,0179,15.5520
1985-01-25 14:45:00 UTC,2446091.114583,25.8817,-84.3197,0179,15.6160
1985-01-25 15:00:00 UTC,2446091.125000,25.8817,-84.3197,0179,15.6660
1985-01-25 15:15:00 UTC,2446091.135417,25.8817,-84.3197,0179,15.6790
1985-01-25 15:30:00 UTC,2446091.145833,25.8817,-84.3197,0179,15.7960
1985-01-25 15:45:00 UTC,2446091.156250,25.8817,-84.3197,0179,15.7750
1985-01-25 16:00:00 UTC,2446091.166667,25.8817,-84.3197,0179,15.8050
1985-01-25 16:15:00 UTC,2446091.177083,25.8817,-84.3197,0179,15.8130
1985-01-25 16:30:00 UTC,2446091.187500,25.8817,-84.3197,0179,15.8450
1985-01-25 16:45:00 UTC,2446091.197917,25.8817,-84.3197,0179,15.8580
1985-01-25 17:00:00 UTC,2446091.208333,25.8817,-84.3197,0179,15.8840
1985-01-25 17:15:00 UTC,2446091.218750,25.8817,-84.3197,0179,15.8790
1985-01-25 17:30:00 UTC,2446091.229167,25.8817,-84.3197,0179,15.9290
1985-01-25 17:45:00 UTC,2446091.239583,25.8817,-84.3197,0179,15.8670
1985-01-25 18:00:00 UTC,2446091.250000,25.8817,-84.3197,0179,15.8190
1985-01-25 18:15:00 UTC,2446091.260417,25.8817,-84.3197,0179,15.8320
1985-01-25 18:30:00 UTC,2446091.270833,25.8817,-84.3197,0179,15.7850
1985-01-25 18:45:00 UTC,2446091.281250,25.8817,-84.3197,0179,15.7200
1985-01-25 19:00:00 UTC,2446091.291667,25.8817,-84.3197,0179,15.6710
1985-01-25 19:15:00 UTC,2446091.302083,25.8817,-84.3197,0179,15.6190
1985-01-25 19:30:00 UTC,2446091.312500,25.8817,-84.3197,0179,15.6100
1985-01-25 19:45:00 UTC,2446091.322917,25.8817,-84.3197,0179,15.5880
1985-01-25 20:00:00 UTC,2446091.333333,25.8817,-84.3197,0179,15.5810
1985-01-25 20:15:00 UTC,2446091.343750,25.8817,-84.3197,0179,15.5680
1985-01-25 20:30:00 UTC,2446091.354167,25.8817,-84.3197,0179,15.5540
1985-01-25 20:45:00 UTC,2446091.364583,25.8817,-84.3197,0179,15.5500
1985-01-25 21:00:00 UTC,2446091.375000,25.8817,-84.3197,0179,15.5480
1985-01-25 21:15:00 UTC,2446091.385417,25.8817,-84.3197,0179,15.5460
1985-01-25 21:30:00 UTC,2446091.395833,25.8817,-84.3197,0179,15.5490
1985-01-25 21:45:00 UTC,2446091.406250,25.8817,-84.3197,0179,15.5470
1985-01-25 22:00:00 UTC,2446091.416667,25.8817,-84.3197,0179,15.5490
1985-01-25 22:15:00 UTC,2446091.427083,25.8817,-84.3197,0179,15.5480
1985-01-25 22:30:00 UTC,2446091.437500,25.8817,-84.3197,0179,15.5450
1985-01-25 22:45:00 UTC,2446091.447917,25.8817,-84.3197,0179,15.5390
1985-01-25 23:00:00 UTC,2446091.458333,25.8817,-84.3197,0179,15.5330
1985-01-25 23:15:00 UTC,2446091.468750,25.8817,-84.3197,0179,15.5340
1985-01-25 23:30:00 UTC,2446091.479167,25.8817,-84.3197,0179,15.5250
1985-01-25 23:45:00 UTC,2446091.489583,25.8817,-84.3197,0179,15.5210
1985-01-26 00:00:00 UTC,2446091.500000,25.8817,-84.3197,0179,15.5160
1985-01-26 00:15:00 UTC,2446091.510417,25.8817,-84.3197,0179,15.5190
1985-01-26 00:30:00 UTC,2446091.520833,25.8817,-84.3197,0179,15.5160
1985-01-26 00:45:00 UTC,2446091.531250,25.8817,-84.3197,0179,15.5260
1985-01-26 01:00:00 UTC,2446091.541667,25.8817,-84.3197,0179,15.5400
1985-01-26 01:15:00 UTC,2446091.552083,25.8817,-84.3197,0179,15.5470
1985-01-26 01:30:00 UTC,2446091.562500,25.8817,-84.3197,0179,15.5430
1985-01-26 01:45:00 UTC,2446091.572917,25.8817,-84.3197,0179,15.5540
1985-01-26 02:00:00 UTC,2446091.583333,25.8817,-84.3197,0179,15.5690
1985-01-26 02:15:00 UTC,2446091.593750,25.8817,-84.3197,0179,15.6070
1985-01-26 02:30:00 UTC,2446091.604167,25.8817,-84.3197,0179,15.6260
1985-01-26 02:45:00 UTC,2446091.614583,25.8817,-84.3197,0179,15.6120
1985-01-26 03:00:00 UTC,2446091.625000,25.8817,-84.3197,0179,15.5920
1985-01-26 03:15:00 UTC,2446091.635417,25.8817,-84.3197,0179,15.5910
1985-01-26 03:30:00 UTC,2446091.645833,25.8817,-84.3197,0179,15.5780
1985-01-26 03:45:00 UTC,2446091.656250,25.8817,-84.3197,0179,15.5790
1985-01-26 04:00:00 UTC,2446091.666667,25.8817,-84.3197,0179,15.5790
1985-01-26 04:15:00 UTC,2446091.677083,25.8817,-84.3197,0179,15.5700
1985-01-26 04:30:00 UTC,2446091.687500,25.8817,-84.3197,0179,15.5600
1985-01-26 04:45:00 UTC,2446091.697917,25.8817,-84.3197,0179,15.5640
1985-01-26 05:00:00 UTC,2446091.708333,25.8817,-84.3197,0179,15.5680
1985-01-26 05:15:00 UTC,2446091.718750,25.8817,-84.3197,0179,15.5810
1985-01-26 05:30:00 UTC,2446091.729167,25.8817,-84.3197,0179,15.6150
1985-01-26 05:45:00 UTC,2446091.739583,25.8817,-84.3197,0179,15.6120
1985-01-26 06:00:00 UTC,2446091.750000,25.8817,-84.3197,0179,15.6440
1985-01-26 06:15:00 UTC,2446091.760417,25.8817,-84.3197,0179,15.7010
1985-01-26 06:30:00 UTC,2446091.770833,25.8817,-84.3197,0179,15.6960
1985-01-26 06:45:00 UTC,2446091.781250,25.8817,-84.3197,0179,15.6570
1985-01-26 07:00:00 UTC,2446091.791667,25.8817,-84.3197,0179,15.7010
1985-01-26 07:15:00 UTC,2446091.802083,25.8817,-84.3197,0179,15.7020
1985-01-26 07:30:00 UTC,2446091.812500,25.8817,-84.3197,0179,15.6850
1985-01-26 07:45:00 UTC,2446091.822917,25.8817,-84.3197,0179,15.6600
1985-01-26 08:00:00 UTC,2446091.833333,25.8817,-84.3197,0179,15.7090
1985-01-26 08:15:00 UTC,2446091.843750,25.8817,-84.3197,0179,15.7310
1985-01-26 08:30:00 UTC,2446091.854167,25.8817,-84.3197,0179,15.7380
1985-01-26 08:45:00 UTC,2446091.864583,25.8817,-84.3197,0179,15.7140
1985-01-26 09:00:00 UTC,2446091.875000,25.8817,-84.3197,0179,15.7290
1985-01-26 09:15:00 UTC,2446091.885417,25.8817,-84.3197,0179,15.7050
1985-01-26 09:30:00 UTC,2446091.895833,25.8817,-84.3197,0179,15.6640
1985-01-26 09:45:00 UTC,2446091.906250,25.8817,-84.3197,0179,15.6720
1985-01-26 10:00:00 UTC,2446091.916667,25.8817,-84.3197,0179,15.7510
1985-01-26 10:15:00 UTC,2446091.927083,25.8817,-84.3197,0179,15.7880
1985-01-26 10:30:00 UTC,2446091.937500,25.8817,-84.3197,0179,15.7910
1985-01-26 10:45:00 UTC,2446091.947917,25.8817,-84.3197,0179,15.8390
1985-01-26 11:00:00 UTC,2446091.958333,25.8817,-84.3197,0179,15.7960
1985-01-26 11:15:00 UTC,2446091.968750,25.8817,-84.3197,0179,15.8290
1985-01-26 11:30:00 UTC,2446091.979167,25.8817,-84.3197,0179,15.8810
1985-01-26 11:45:00 UTC,2446091.989583,25.8817,-84.3197,0179,15.8740
1985-01-26 12:00:00 UTC,2446092.000000,25.8817,-84.3197,0179,15.9550
1985-01-26 12:15:00 UTC,2446092.010417,25.8817,-84.3197,0179,15.9670
1985-01-26 12:30:00 UTC,2446092.020833,25.8817,-84.3197,0179,15.9360
1985-01-26 12:45:00 UTC,2446092.031250,25.8817,-84.3197,0179,15.9640
1985-01-26 13:00:00 UTC,2446092.041667,25.8817,-84.3197,0179,15.9900
1985-01-26 13:15:00 UTC,2446092.052083,25.8817,-84.3197,0179,16.0470
1985-01-26 13:30:00 UTC,2446092.062500,25.8817,-84.3197,0179,16.0700
1985-01-26 13:45:00 UTC,2446092.072917,25.8817,-84.3197,0179,16.0900
1985-01-26 14:00:00 UTC,2446092.083333,25.8817,-84.3197,0179,16.1490
1985-01-26 14:15:00 UTC,2446092.093750,25.8817,-84.3197,0179,16.1560
1985-01-26 14:30:00 UTC,2446092.104167,25.8817,-84.3197,0179,16.1260
1985-01-26 14:45:00 UTC,2446092.114583,25.8817,-84.3197,0179,16.1430
1985-01-26 15:00:00 UTC,2446092.125000,25.8817,-84.3197,0179,16.0640
1985-01-26 15:15:00 UTC,2446092.135417,25.8817,-84.3197,0179,16.0440
1985-01-26 15:30:00 UTC,2446092.145833,25.8817,-84.3197,0179,16.0570
1985-01-26 15:45:00 UTC,2446092.156250,25.8817,-84.3197,0179,16.0570
1985-01-26 16:00:00 UTC,2446092.166667,25.8817,-84.3197,0179,15.9840
1985-01-26 16:15:00 UTC,2446092.177083,25.8817,-84.3197,0179,15.9600
1985-01-26 16:30:00 UTC,2446092.187500,25.8817,-84.3197,0179,15.9310
1985-01-26 16:45:00 UTC,2446092.197917,25.8817,-84.3197,0179,15.9040
1985-01-26 17:00:00 UTC,2446092.208333,25.8817,-84.3197,0179,15.8880
1985-01-26 17:15:00 UTC,2446092.218750,25.8817,-84.3197,0179,15.8840
1985-01-26 17:30:00 UTC,2446092.229167,25.8817,-84.3197,0179,15.8700
1985-01-26 17:45:00 UTC,2446092.239583,25.8817,-84.3197,0179,15.8490
1985-01-26 18:00:00 UTC,2446092.250000,25.8817,-84.3197,0179,15.8340
1985-01-26 18:15:00 UTC,2446092.260417,25.8817,-84.3197,0179,15.8090
1985-01-26 18:30:00 UTC,2446092.270833,25.8817,-84.3197,0179,15.7780
1985-01-26 18:45:00 UTC,2446092.281250,25.8817,-84.3197,0179,15.7460
1985-01-26 19:00:00 UTC,2446092.291667,25.8817,-84.3197,0179,15.7510
1985-01-26 19:15:00 UTC,2446092.302083,25.8817,-84.3197,0179,15.7480
1985-01-26 19:30:00 UTC,2446092.312500,25.8817,-84.3197,0179,15.8170
1985-01-26 19:45:00 UTC,2446092.322917,25.8817,-84.3197,0179,15.8280
1985-01-26 20:00:00 UTC,2446092.333333,25.8817,-84.3197,0179,15.7810
1985-01-26 20:15:00 UTC,2446092.343750,25.8817,-84.3197,0179,15.7590
1985-01-26 20:30:00 UTC,2446092.354167,25.8817,-84.3197,0179,15.7580
1985-01-26 20:45:00 UTC,2446092.364583,25.8817,-84.3197,0179,15.7380
1985-01-26 21:00:00 UTC,2446092.375000,25.8817,-84.3197,0179,15.7240
1985-01-26 21:15:00 UTC,2446092.385417,25.8817,-84.3197,0179,15.7350
1985-01-26 21:30:00 UTC,2446092.395833,25.8817,-84.3197,0179,15.7500
1985-01-26 21:45:00 UTC,2446092.406250,25.8817,-84.3197,0179,15.7630
1985-01-26 22:00:00 UTC,2446092.416667,25.8817,-84.3197,0179,15.7930
1985-01-26 22:15:00 UTC,2446092.427083,25.8817,-84.3197,0179,15.8350
1985-01-26 22:30:00 UTC,2446092.437500,25.8817,-84.3197,0179,15.8260
1985-01-26 22:45:00 UTC,2446092.447917,25.8817,-84.3197,0179,15.8710
1985-01-26 23:00:00 UTC,2446092.458333,25.8817,-84.3197,0179,15.8670
1985-01-26 23:15:00 UTC,2446092.468750,25.8817,-84.3197,0179,15.8680
1985-01-26 23:30:00 UTC,2446092.479167,25.8817,-84.3197,0179,15.9030
1985-01-26 23:45:00 UTC,2446092.489583,25.8817,-84.3197,0179,16.0000
1985-01-27 00:00:00 UTC,2446092.500000,25.8817,-84.3197,0179,15.9650
1985-01-27 00:15:00 UTC,2446092.510417,25.8817,-84.3197,0179,15.8660
1985-01-27 00:30:00 UTC,2446092.520833,25.8817,-84.3197,0179,15.8740
1985-01-27 00:45:00 UTC,2446092.531250,25.8817,-84.3197,0179,15.8480
1985-01-27 01:00:00 UTC,2446092.541667,25.8817,-84.3197,0179,15.8970
1985-01-27 01:15:00 UTC,2446092.552083,25.8817,-84.3197,0179,15.8090
1985-01-27 01:30:00 UTC,2446092.562500,25.8817,-84.3197,0179,15.8230
1985-01-27 01:45:00 UTC,2446092.572917,25.8817,-84.3197,0179,15.7820
1985-01-27 02:00:00 UTC,2446092.583333,25.8817,-84.3197,0179,16.0170
1985-01-27 02:15:00 UTC,2446092.593750,25.8817,-84.3197,0179,16.1200
1985-01-27 02:30:00 UTC,2446092.604167,25.8817,-84.3197,0179,16.2410
1985-01-27 02:45:00 UTC,2446092.614583,25.8817,-84.3197,0179,16.1250
1985-01-27 03:00:00 UTC,2446092.625000,25.8817,-84.3197,0179,15.6580
1985-01-27 03:15:00 UTC,2446092.635417,25.8817,-84.3197,0179,15.9840
1985-01-27 03:30:00 UTC,2446092.645833,25.8817,-84.3197,0179,15.4610
1985-01-27 03:45:00 UTC,2446092.656250,25.8817,-84.3197,0179,15.5470
1985-01-27 04:00:00 UTC,2446092.666667,25.8817,-84.3197,0179,15.4750
1985-01-27 04:15:00 UTC,2446092.677083,25.8817,-84.3197,0179,15.4220
1985-01-27 04:30:00 UTC,2446092.687500,25.8817,-84.3197,0179,15.3800
1985-01-27 04:45:00 UTC,2446092.697917,25.8817,-84.3197,0179,15.4520
1985-01-27 05:00:00 UTC,2446092.708333,25.8817,-84.3197,0179,15.2110
1985-01-27 05:15:00 UTC,2446092.718750,25.8817,-84.3197,0179,15.1740
1985-01-27 05:30:00 UTC,2446092.729167,25.8817,-84.3197,0179,15.1800
1985-01-27 05:45:00 UTC,2446092.739583,25.8817,-84.3197,0179,15.2180
1985-01-27 06:00:00 UTC,2446092.750000,25.8817,-84.3197,0179,15.2600
1985-01-27 06:15:00 UTC,2446092.760417,25.8817,-84.3197,0179,15.1810
1985-01-27 06:30:00 UTC,2446092.770833,25.8817,-84.3197,0179,15.1420
1985-01-27 06:45:00 UTC,2446092.781250,25.8817,-84.3197,0179,15.1740
1985-01-27 07:00:00 UTC,2446092.791667,25.8817,-84.3197,0179,15.2680
1985-01-27 07:15:00 UTC,2446092.802083,25.8817,-84.3197,0179,15.2760
1985-01-27 07:30:00 UTC,2446092.812500,25.8817,-84.3197,0179,15.3210
1985-01-27 07:45:00 UTC,2446092.822917,25.8817,-84.3197,0179,15.4530
1985-01-27 08:00:00 UTC,2446092.833333,25.8817,-84.3197,0179,15.6310
1985-01-27 08:15:00 UTC,2446092.843750,25.8817,-84.3197,0179,15.7380
1985-01-27 08:30:00 UTC,2446092.854167,25.8817,-84.3197,0179,15.8380
1985-01-27 08:45:00 UTC,2446092.864583,25.8817,-84.3197,0179,15.8600
1985-01-27 09:00:00 UTC,2446092.875000,25.8817,-84.3197,0179,15.8720
1985-01-27 09:15:00 UTC,2446092.885417,25.8817,-84.3197,0179,15.8690
1985-01-27 09:30:00 UTC,2446092.895833,25.8817,-84.3197,0179,15.8530
1985-01-27 09:45:00 UTC,2446092.906250,25.8817,-84.3197,0179,15.8670
1985-01-27 10:00:00 UTC,2446092.916667,25.8817,-84.3197,0179,15.8810